This demonstration page uses our WeatherBlox Daily Observations layout. Learn more.

Left ArrowRight Arrow

34.74481, -87.66753

Hourly Observations for March 25, 2018

Temp ( °F °C ) Dew Point ( °F °C ) Humidity (%) Winds ( mph kmh ) Pressure ( in mb ) Visibility ( mi km ) Precip ( " mm )
12:53 am 00:53 Mostly Cloudy 65 18.3 60 15.6 84 84 W 10 17 29.85 1011 10 16 0.00 0.00
1:05 am 01:05 Mostly Cloudy 65 18.3 60 15.6 84 84 W 12 19 29.85 1011 10 16 0.00 0.00
1:24 am 01:24 Cloudy with Light Rain 65 18.3 60 15.6 84 84 WNW 7 11 29.85 1011 8 13 0.00 0.03
1:53 am 01:53 Cloudy with Heavy Rain 64 17.8 61 16.1 90 90 WNW 7 11 29.87 1011 3 5 0.08 2.03
1:58 am 01:58 Cloudy with Heavy Rain 63 17.2 61 16.1 93 93 WNW 8 13 29.85 1011 3 4 0.02 0.51
2:14 am 02:14 Cloudy with Heavy Rain 63 17.2 61 16.1 93 93 WNW 7 11 29.85 1011 2 3 0.13 3.30
2:23 am 02:23 Cloudy with Rain 63 17.2 61 16.1 93 93 WNW 6 9 29.85 1011 3 5 0.16 4.06
2:53 am 02:53 Cloudy with Mist and Fog 63 17.2 60 15.6 90 90 W 7 11 29.88 1012 4 6 0.17 4.32
3:06 am 03:06 Cloudy with Rain 63 17.2 60 15.6 90 90 WNW 8 13 29.85 1011 3 4 0.04 1.02
3:17 am 03:17 Cloudy with Rain 63 17.2 60 15.6 90 90 WNW 9 15 29.85 1011 3 5 0.06 1.52
3:42 am 03:42 Cloudy 63 17.2 60 15.6 90 90 WNW 9 15 29.88 1012 9 14 0.07 1.78
3:53 am 03:53 Cloudy 62 16.7 60 15.6 93 93 WNW 9 15 29.89 1012 10 16 0.08 2.03
4:35 am 04:35 Cloudy with Mist and Fog 60 15.6 58 14.4 93 93 NW 7 11 29.88 1012 6 10 0.00 0.00
4:53 am 04:53 Cloudy with Mist and Fog 60 15.6 57 13.9 90 90 NW 6 9 29.91 1013 5 8 0.00 0.00
5:53 am 05:53 Cloudy 58 14.4 56 13.3 93 93 WNW 8 13 29.92 1013 7 11 0.00 0.00
6:38 am 06:38 Cloudy with Mist and Fog 57 13.9 55 12.8 93 93 WNW 12 19 29.97 1015 2 3 0.00 0.00
6:53 am 06:53 Mostly Cloudy with Mist and Fog 56 13.3 54 12.2 93 93 WNW 9 15 29.96 1014 1 2 0.00 0.00
7:02 am 07:02 Mostly Cloudy with Mist and Fog 55 12.8 53 11.7 93 93 WNW 13 20 29.97 1015 1 1 0.00 0.00
7:37 am 07:37 Cloudy with Mist and Fog 54 12.2 52 11.1 93 93 NW 8 13 30.00 1016 1 2 0.00 0.00
7:53 am 07:53 Cloudy with Mist and Fog 53 11.7 51 10.6 93 93 NW 10 17 29.99 1016 2 2 0.00 0.00
8:12 am 08:12 Cloudy with Mist and Fog 52 11.1 50 10 93 93 WNW 9 15 30.00 1016 3 5 0.00 0.00
8:38 am 08:38 Cloudy with Mist and Fog 52 11.1 50 10 93 93 WNW 9 15 30.03 1017 2 3 0.00 0.00
8:53 am 08:53 Cloudy with Mist and Fog 51 10.6 49 9.4 92 92 WNW 9 15 30.01 1016 3 4 0.00 0.00
9:05 am 09:05 Cloudy with Mist and Fog 51 10.6 49 9.4 92 92 WNW 10 17 30.03 1017 3 5 0.00 0.00
9:53 am 09:53 Cloudy 51 10.6 48 8.9 89 89 NW 8 13 30.03 1017 7 11 0.00 0.00
10:35 am 10:35 Cloudy 51 10.6 47 8.3 86 86 NW 6 9 30.03 1017 10 16 0.00 0.00
10:53 am 10:53 Cloudy 51 10.6 47 8.3 86 86 NNW 5 7 30.03 1017 10 16 0.00 0.00
11:53 am 11:53 Cloudy 53 11.7 47 8.3 80 80 W 6 9 30.03 1017 10 16 0.00 0.00
12:03 pm 12:03 Cloudy 54 12.2 47 8.3 77 77 VRB 5 7 30.03 1017 10 16 0.00 0.00
12:53 pm 12:53 Cloudy 56 13.3 48 8.9 75 75 NW 6 9 30.03 1017 10 16 0.00 0.00
1:28 pm 13:28 Partly Cloudy 58 14.4 49 9.4 72 72 NNW 5 7 30.03 1017 10 16 0.00 0.00
1:53 pm 13:53 Partly Cloudy 59 15 50 10 72 72 W 12 19 30.02 1017 10 16 0.00 0.00
2:53 pm 14:53 Sunny 61 16.1 50 10 67 67 WNW 9 15 30.01 1016 10 16 0.00 0.00
3:53 pm 15:53 Sunny 63 17.2 49 9.4 60 60 NW 7 11 30.00 1016 10 16 0.00 0.00
4:53 pm 16:53 Partly Cloudy 63 17.2 47 8.3 56 56 WNW 9 15 30.02 1017 10 16 0.00 0.00
5:53 pm 17:53 Sunny 62 16.7 48 8.9 60 60 NW 5 7 30.03 1017 10 16 0.00 0.00
6:53 pm 18:53 Sunny 60 15.6 47 8.3 62 62 NW 6 9 30.04 1017 10 16 0.00 0.00
7:53 pm 19:53 Mostly Clear 57 13.9 46 7.8 67 67 NNW 5 7 30.07 1018 10 16 0.00 0.00
8:53 pm 20:53 Clear 55 12.8 45 7.2 69 69 N 5 7 30.10 1019 10 16 0.00 0.00
9:53 pm 21:53 Clear 54 12.2 45 7.2 72 72 NE 6 9 30.10 1019 10 16 0.00 0.00
10:53 pm 22:53 Clear 53 11.7 45 7.2 74 74 NE 6 9 30.11 1020 10 16 0.00 0.00
11:53 pm 23:53 Clear 52 11.1 46 7.8 80 80 ENE 6 9 30.11 1020 10 16 0.00 0.00

Powered by AerisWeather